When you browse on this site, cookies collect data to enhance your experience and personalize the content and advertising you see.
Visit our Privacy Policy to learn more. By continuing to use the site, you agree to this use of cookies and data.
  • In Schweiz
  • Länderverzeichnis
  • Für 7 Tage
  • Wassertemperatur
  • Wetterkarte
  • Widgets
  • user-avatar
    Anmelden

    Stündliche Wetter Lille

    Heute, 20 November, Mittwoch

    Zeit Temperatur Niederschläge Wind Luftdruck Luftfeuchtigkeit
    00:00 +4°C° 0 mm 2 m/S 761 mmHg 76%
    01:00 +3°C° 0 mm 2 m/S 760 mmHg 77%
    02:00 +3°C° 0 mm 2 m/S 760 mmHg 77%
    03:00 +2°C° 0 mm 2 m/S 760 mmHg 78%
    04:00 +2°C° 0 mm 2 m/S 760 mmHg 79%
    05:00 +1°C° 0 mm 2 m/S 760 mmHg 81%
    06:00 +1°C° 0 mm 2 m/S 760 mmHg 82%
    07:00 +1°C° 0 mm 2 m/S 759 mmHg 81%
    08:00 +2°C° 0 mm 2 m/S 759 mmHg 80%
    09:00 +2°C° 0 mm 2 m/S 759 mmHg 79%
    10:00 +3°C° 0 mm 2 m/S 759 mmHg 75%
    11:00 +3°C° 0 mm 3 m/S 758 mmHg 71%
    12:00 +5°C° 0 mm 3 m/S 758 mmHg 68%
    13:00 +4°C° 0 mm 3 m/S 758 mmHg 69%
    14:00 +4°C° 0 mm 3 m/S 757 mmHg 71%
    15:00 +4°C° 0 mm 3 m/S 756 mmHg 73%
    16:00 +4°C° 0 mm 4 m/S 756 mmHg 77%
    17:00 +3°C° 0 mm 4 m/S 756 mmHg 81%
    18:00 +1°C° 0 mm 4 m/S 756 mmHg 85%
    19:00 +1°C° 0 mm 4 m/S 755 mmHg 86%
    20:00 0°C° 0 mm 4 m/S 755 mmHg 86%
    21:00 0°C° 0 mm 4 m/S 755 mmHg 86%
    22:00 +1°C° 0 mm 3 m/S 755 mmHg 88%
    23:00 0°C° 0 mm 3 m/S 754 mmHg 89%

    Morgen, 21 November, Donnerstag

    Zeit Temperatur Niederschläge Wind Luftdruck Luftfeuchtigkeit
    00:00 0°C° 0 mm 3 m/S 754 mmHg 90%
    01:00 0°C° 0 mm 3 m/S 754 mmHg 90%
    02:00 0°C° 0 mm 3 m/S 753 mmHg 90%
    03:00 0°C° 0 mm 3 m/S 753 mmHg 90%
    04:00 0°C° 0 mm 3 m/S 753 mmHg 91%
    05:00 0°C° 0 mm 3 m/S 753 mmHg 91%
    06:00 0°C° 0 mm 3 m/S 753 mmHg 91%
    07:00 0°C° 0 mm 3 m/S 753 mmHg 90%
    08:00 +1°C° 0 mm 3 m/S 752 mmHg 88%
    09:00 +2°C° 0 mm 3 m/S 752 mmHg 87%
    10:00 +3°C° 0 mm 3 m/S 752 mmHg 84%
    11:00 +4°C° 0 mm 3 m/S 752 mmHg 82%
    12:00 +7°C° 0 mm 3 m/S 751 mmHg 79%
    13:00 +7°C° 0 mm 3 m/S 751 mmHg 80%
    14:00 +7°C° 0 mm 3 m/S 751 mmHg 81%
    15:00 +7°C° 0 mm 3 m/S 750 mmHg 82%
    16:00 +5°C° 0 mm 3 m/S 750 mmHg 85%
    17:00 +5°C° 0 mm 3 m/S 750 mmHg 87%
    18:00 +4°C° 0 mm 4 m/S 750 mmHg 89%
    19:00 +4°C° 0 mm 4 m/S 750 mmHg 89%
    20:00 +5°C° 0 mm 4 m/S 750 mmHg 88%
    21:00 +5°C° 0 mm 4 m/S 750 mmHg 88%
    22:00 +5°C° 0 mm 4 m/S 750 mmHg 88%
    23:00 +6°C° 0 mm 5 m/S 750 mmHg 88%

    übermorgen, 22 November, Freitag

    Zeit Temperatur Niederschläge Wind Luftdruck Luftfeuchtigkeit
    00:00 +6°C° 0 mm 5 m/S 750 mmHg 88%
    01:00 +6°C° 0 mm 5 m/S 750 mmHg 89%
    02:00 +5°C° 0 mm 5 m/S 749 mmHg 90%
    03:00 +5°C° 0 mm 5 m/S 749 mmHg 91%
    04:00 +5°C° 0 mm 5 m/S 750 mmHg 91%
    05:00 +5°C° 0 mm 4 m/S 750 mmHg 90%
    06:00 +5°C° 0 mm 4 m/S 750 mmHg 90%
    07:00 +5°C° 0 mm 4 m/S 750 mmHg 90%
    08:00 +5°C° 0 mm 5 m/S 750 mmHg 89%
    09:00 +5°C° 0 mm 5 m/S 750 mmHg 88%
    10:00 +6°C° 0 mm 5 m/S 749 mmHg 83%
    11:00 +7°C° 0 mm 5 m/S 749 mmHg 78%
    12:00 +8°C° 0 mm 5 m/S 749 mmHg 73%
    13:00 +8°C° 0 mm 5 m/S 748 mmHg 75%
    14:00 +8°C° 0 mm 5 m/S 748 mmHg 76%
    15:00 +8°C° 0 mm 4 m/S 748 mmHg 77%
    16:00 +7°C° 0 mm 4 m/S 748 mmHg 80%
    17:00 +7°C° 0 mm 5 m/S 747 mmHg 83%
    18:00 +6°C° 0 mm 5 m/S 747 mmHg 86%
    19:00 +7°C° 0 mm 6 m/S 747 mmHg 81%
    20:00 +7°C° 0 mm 6 m/S 747 mmHg 76%
    21:00 +8°C° 0 mm 7 m/S 747 mmHg 72%
    22:00 +8°C° 0.1 mm 7 m/S 746 mmHg 70%
    23:00 +8°C° 0.1 mm 6 m/S 746 mmHg 69%

    23 November, Samstag

    Zeit Temperatur Niederschläge Wind Luftdruck Luftfeuchtigkeit
    00:00 +8°C° 0.1 mm 6 m/S 746 mmHg 67%
    01:00 +8°C° 0.2 mm 6 m/S 746 mmHg 69%
    02:00 +7°C° 0.2 mm 6 m/S 746 mmHg 71%
    03:00 +7°C° 0.2 mm 6 m/S 745 mmHg 73%
    04:00 +7°C° 0.1 mm 6 m/S 745 mmHg 72%
    05:00 +8°C° 0.1 mm 7 m/S 745 mmHg 71%
    06:00 +8°C° 0.1 mm 7 m/S 745 mmHg 70%
    07:00 +8°C° 0.1 mm 6 m/S 745 mmHg 72%
    08:00 +8°C° 0.1 mm 6 m/S 746 mmHg 73%
    09:00 +8°C° 0.1 mm 5 m/S 746 mmHg 74%
    10:00 +9°C° 0 mm 5 m/S 746 mmHg 71%
    11:00 +9°C° 0 mm 5 m/S 746 mmHg 67%
    12:00 +10°C° 0 mm 6 m/S 746 mmHg 63%
    13:00 +10°C° 0 mm 5 m/S 746 mmHg 66%
    14:00 +10°C° 0 mm 4 m/S 747 mmHg 69%
    15:00 +10°C° 0 mm 3 m/S 747 mmHg 71%
    16:00 +10°C° 0 mm 3 m/S 747 mmHg 73%
    17:00 +9°C° 0 mm 3 m/S 748 mmHg 75%
    18:00 +8°C° 0 mm 3 m/S 749 mmHg 77%
    19:00 +8°C° 0 mm 3 m/S 749 mmHg 77%
    20:00 +8°C° 0 mm 2 m/S 750 mmHg 77%
    21:00 +8°C° 0 mm 2 m/S 750 mmHg 76%
    22:00 +8°C° 0 mm 2 m/S 751 mmHg 78%
    23:00 +7°C° 0 mm 2 m/S 751 mmHg 79%

    24 November, Sonntag

    Zeit Temperatur Niederschläge Wind Luftdruck Luftfeuchtigkeit
    00:00 +7°C° 0 mm 2 m/S 752 mmHg 81%
    01:00 +7°C° 0 mm 2 m/S 752 mmHg 81%
    02:00 +6°C° 0 mm 2 m/S 752 mmHg 82%
    03:00 +6°C° 0 mm 2 m/S 753 mmHg 82%
    04:00 +6°C° 0 mm 2 m/S 753 mmHg 83%
    05:00 +6°C° 0 mm 2 m/S 754 mmHg 83%
    06:00 +6°C° 0 mm 2 m/S 754 mmHg 84%
    07:00 +6°C° 0 mm 2 m/S 754 mmHg 83%
    08:00 +7°C° 0 mm 2 m/S 755 mmHg 82%
    09:00 +7°C° 0 mm 2 m/S 755 mmHg 80%
    10:00 +8°C° 0 mm 2 m/S 755 mmHg 77%
    11:00 +10°C° 0 mm 2 m/S 756 mmHg 74%
    12:00 +12°C° 0 mm 2 m/S 756 mmHg 71%
    13:00 +12°C° 0 mm 2 m/S 756 mmHg 74%
    14:00 +10°C° 0 mm 2 m/S 756 mmHg 76%
    15:00 +10°C° 0 mm 2 m/S 756 mmHg 79%
    16:00 +9°C° 0 mm 2 m/S 756 mmHg 82%
    17:00 +8°C° 0 mm 2 m/S 756 mmHg 85%
    18:00 +8°C° 0 mm 2 m/S 757 mmHg 88%
    19:00 +7°C° 0 mm 2 m/S 757 mmHg 89%
    20:00 +7°C° 0 mm 3 m/S 757 mmHg 90%
    21:00 +7°C° 0 mm 3 m/S 757 mmHg 90%
    22:00 +7°C° 0 mm 3 m/S 757 mmHg 91%
    23:00 +7°C° 0 mm 3 m/S 757 mmHg 92%

    25 November, Montag

    Zeit Temperatur Niederschläge Wind Luftdruck Luftfeuchtigkeit
    00:00 +7°C° 0 mm 3 m/S 757 mmHg 93%
    01:00 +7°C° 0 mm 3 m/S 757 mmHg 93%
    02:00 +7°C° 0 mm 3 m/S 757 mmHg 94%
    03:00 +7°C° 0 mm 3 m/S 757 mmHg 94%
    04:00 +6°C° 0 mm 4 m/S 757 mmHg 94%
    05:00 +6°C° 0 mm 4 m/S 756 mmHg 94%
    06:00 +6°C° 0 mm 4 m/S 756 mmHg 93%
    07:00 +6°C° 0 mm 5 m/S 756 mmHg 90%
    08:00 +7°C° 0 mm 6 m/S 756 mmHg 87%
    09:00 +7°C° 0 mm 6 m/S 756 mmHg 85%
    10:00 +8°C° 0.1 mm 6 m/S 755 mmHg 84%
    11:00 +8°C° 0.1 mm 7 m/S 755 mmHg 84%
    12:00 +8°C° 0.1 mm 7 m/S 755 mmHg 84%
    13:00 +8°C° 0.3 mm 7 m/S 755 mmHg 85%
    14:00 +8°C° 0.3 mm 7 m/S 754 mmHg 87%
    15:00 +8°C° 0.3 mm 7 m/S 754 mmHg 88%
    16:00 +9°C° 0.1 mm 7 m/S 754 mmHg 88%
    17:00 +9°C° 0.1 mm 6 m/S 754 mmHg 89%
    18:00 +9°C° 0.1 mm 6 m/S 754 mmHg 89%
    19:00 +9°C° 0 mm 6 m/S 755 mmHg 90%
    20:00 +9°C° 0 mm 6 m/S 755 mmHg 91%
    21:00 +9°C° 0 mm 5 m/S 755 mmHg 91%
    22:00 +9°C° 0 mm 5 m/S 755 mmHg 91%
    23:00 +9°C° 0 mm 5 m/S 755 mmHg 91%
    Mehr zeigen